Location: Cheching
(60.0667°N, 164.2167°W)
Time: 10:44:41
(UTC+00:00)

NOAA 19 - Pass Details

Date: 17 January 2021
Orbit: 840 x 862 km, 99.2° (Epoch: 26 February)

Event Time Altitude Azimuth Distance (km) Brightness Sun altitude
Rises 04:15:42 0° 159° (SSE) 3,433 8.4 -11.7°
Reaches altitude 10° 04:18:04 10° 160° (SSE) 2,499 7.7 -12.0°
Maximum altitude 04:23:39 87° 250° (WSW) 870 5.3 -12.6°
Drops below altitude 10° 04:29:14 10° 340° (NNW) 2,504 7.7 -13.3°
Sets 04:31:37 0° 341° (NNW) 3,442 8.4 -13.6°
